Weather History for West Point, VA

Change the Weather History Date:

Sunday, March 10, 2013

  Actual Average (KRIC) Record (KRIC)
Temperature  
Mean Temperature 41 °F 47 °F  
Max Temperature 58 °F 58 °F 81 °F (2006)
Min Temperature 24 °F 35 °F 16 °F (1996)
Degree Days  
Heating Degree Days 24 19  
Month to date heating degree days 199  
Since 1 July heating degree days 3135  
Cooling Degree Days 0 0  
Month to date cooling degree days 0  
Year to date cooling degree days 0  
Moisture  
Dew Point 33 °F    
Average Humidity 73    
Maximum Humidity 100    
Minimum Humidity 27    
Precipitation  
Precipitation 0.00 in 0.12 in 1.90 in (1978)
Month to date precipitation 1.19  
Year to date precipitation 6.99  
Snow  
Snow 0.00 in 0.00 in 2.20 in (1934)
Month to date snowfall 0.4  
Since 1 July snowfall 10.0  
Snow Depth -    
Sea Level Pressure  
Sea Level Pressure 30.32 in    
Wind  
Wind Speed 3 mph (SE)    
Max Wind Speed 13 mph    
Max Gust Speed -    
Visibility 10 miles    
Events      
T = Trace of Precipitation, MM = Missing Value Source: NWS Daily Summary

Daily Weather History Graph

Daily Weather History Graph

Search for Another Location

Airport:

Trip Planner

Search our weather history database for the weather conditions in past years. The results will help you decide how hot, cold, wet, or windy it might be!

Date:

Astronomy

Mar. 10, 2013 Rise Set
Actual Time 7:25 AM EDT 7:09 PM EDT
Civil Twilight 6:59 AM EDT 7:35 PM EDT
Nautical Twilight 6:28 AM EDT 8:06 PM EDT
Astronomical Twilight 5:58 AM EDT 8:36 PM EDT
Moon 6:23 AM EDT (3/10) 6:15 PM EDT (3/10)
Length of Visible Light 12h 36m
Length of Day
11h 44m
Waning Crescent, 2% of the Moon is Illuminated
Mar 10
Waning Crescent
Mar 11
New
Mar 19
First Quarter
Mar 27
Full
Apr 3
Last Quarter

Hourly Weather History & Observations

Time (EDT) Temp. Windchill Dew Point Humidity Pressure Visibility Wind Dir Wind Speed Gust Speed Precip Events Conditions
12:15 AM 31.1 °F - 28.9 °F 92% 30.33 in 10.0 mi Calm Calm - N/A   Clear
12:35 AM 30.9 °F - 28.6 °F 91% 30.33 in 10.0 mi Calm Calm - N/A   Clear
12:55 AM 30.9 °F - 29.3 °F 94% 30.34 in 10.0 mi Calm Calm - N/A   Clear
1:15 AM 30.2 °F - 28.4 °F 93% 30.34 in 10.0 mi Calm Calm - N/A   Clear
1:35 AM 30.7 °F - 29.1 °F 94% 30.33 in 10.0 mi Calm Calm - N/A   Clear
1:55 AM 28.9 °F - 27.9 °F 96% 30.33 in 10.0 mi Calm Calm - N/A   Clear
3:15 AM 29.1 °F - 28.0 °F 96% 30.32 in 10.0 mi Calm Calm - N/A   Clear
3:35 AM 29.5 °F - 28.4 °F 96% 30.32 in 10.0 mi Calm Calm - N/A   Clear
3:55 AM 29.3 °F 25.6 °F 28.4 °F 96% 30.31 in 10.0 mi ENE 3.5 mph - N/A   Clear
4:15 AM 28.2 °F - 27.5 °F 97% 30.31 in 10.0 mi Calm Calm - N/A   Clear
4:35 AM 28.8 °F - 28.2 °F 98% 30.31 in 10.0 mi Calm Calm - N/A   Clear
4:55 AM 29.3 °F - 29.1 °F 99% 30.32 in 10.0 mi Calm Calm - N/A   Clear
5:15 AM 26.6 °F - 26.1 °F 98% 30.32 in 10.0 mi Calm Calm - N/A   Clear
5:35 AM 27.5 °F - 27.5 °F 100% 30.32 in 10.0 mi Calm Calm - N/A   Clear
5:55 AM 27.7 °F - 27.5 °F 99% 30.33 in 10.0 mi Calm Calm - N/A   Clear
6:15 AM 28.9 °F - 28.9 °F 100% 30.33 in 10.0 mi Calm Calm - N/A   Clear
6:35 AM 26.4 °F - 26.2 °F 99% 30.33 in 10.0 mi Calm Calm - N/A   Clear
6:55 AM 26.6 °F - 26.4 °F 99% 30.34 in 10.0 mi Calm Calm - N/A   Clear
7:15 AM 24.8 °F - 24.4 °F 99% 30.34 in 10.0 mi Calm Calm - N/A   Clear
7:35 AM 27.5 °F - 27.3 °F 99% 30.34 in 10.0 mi Calm Calm - N/A   Clear
8:35 AM 32.0 °F - 31.5 °F 98% 30.34 in 10.0 mi Calm Calm - N/A   Clear
8:55 AM 35.4 °F - 35.4 °F 100% 30.35 in 10.0 mi Calm Calm - N/A   Clear
9:15 AM 38.1 °F - 37.8 °F 99% 30.35 in 10.0 mi Calm Calm - N/A   Clear
9:35 AM 41.5 °F - 39.2 °F 91% 30.36 in 10.0 mi Calm Calm - N/A   Clear
9:55 AM 44.6 °F - 37.0 °F 75% 30.35 in 10.0 mi Calm Calm - N/A   Clear
10:15 AM 48.0 °F - 37.6 °F 67% 30.36 in 10.0 mi Calm Calm - N/A   Clear
10:35 AM 49.3 °F - 31.8 °F 51% 30.36 in 10.0 mi Calm Calm - N/A   Clear
10:55 AM 51.1 °F - 33.3 °F 51% 30.36 in 10.0 mi SW 3.5 mph - N/A   Clear
11:15 AM 52.7 °F - 32.5 °F 46% 30.36 in 10.0 mi South 3.5 mph - N/A   Clear
11:35 AM 54.5 °F - 30.2 °F 39% 30.35 in 10.0 mi South 6.9 mph - N/A   Clear
11:55 AM 55.0 °F - 28.8 °F 37% 30.36 in 10.0 mi South 8.1 mph - N/A   Clear
12:15 PM 55.6 °F - 25.3 °F 31% 30.36 in 10.0 mi South 9.2 mph - N/A   Clear
12:35 PM 56.7 °F - 23.5 °F 28% 30.35 in 10.0 mi South 9.2 mph - N/A   Clear
12:55 PM 57.7 °F - 24.6 °F 28% 30.35 in 10.0 mi South 9.2 mph - N/A   Clear
1:15 PM 57.6 °F - 23.2 °F 27% 30.34 in 10.0 mi SSE 10.4 mph - N/A   Clear
1:35 PM 57.6 °F - 24.3 °F 28% 30.34 in 10.0 mi SSE 10.4 mph - N/A   Clear
1:55 PM 58.1 °F - 24.6 °F 28% 30.33 in 7.0 mi SSE 10.4 mph - N/A   Clear
2:15 PM 58.1 °F - 25.2 °F 28% 30.32 in 10.0 mi SSE 11.5 mph - N/A   Clear
2:35 PM 58.3 °F - 25.7 °F 29% 30.31 in 10.0 mi SSE 11.5 mph - N/A   Clear
2:55 PM 58.5 °F - 26.1 °F 29% 30.30 in 10.0 mi SSE 12.7 mph - N/A   Clear
3:15 PM 58.5 °F - 24.4 °F 27% 30.30 in 10.0 mi SSE 12.7 mph - N/A   Clear
3:35 PM 58.3 °F - 25.9 °F 29% 30.29 in 10.0 mi SSE 11.5 mph - N/A   Clear
3:55 PM 57.6 °F - 31.8 °F 38% 30.29 in 10.0 mi SSE 12.7 mph - N/A   Clear
4:15 PM 57.2 °F - 33.1 °F 40% 30.29 in 10.0 mi SSE 12.7 mph - N/A   Clear
4:35 PM 57.4 °F - 34.2 °F 42% 30.29 in 10.0 mi SSE 11.5 mph - N/A   Clear
4:55 PM 57.4 °F - 35.2 °F 43% 30.30 in 10.0 mi SSE 11.5 mph - N/A   Clear
5:15 PM 57.2 °F - 34.7 °F 43% 30.29 in 10.0 mi SSE 11.5 mph - N/A   Clear
5:35 PM 57.2 °F - 34.0 °F 42% 30.29 in 10.0 mi SE 8.1 mph - N/A   Clear
5:55 PM 57.2 °F - 33.3 °F 40% 30.29 in 10.0 mi SE 6.9 mph - N/A   Clear
6:15 PM 56.3 °F - 32.9 °F 41% 30.29 in 10.0 mi SE 6.9 mph - N/A   Clear
6:35 PM 55.0 °F - 32.5 °F 43% 30.29 in 10.0 mi SE 5.8 mph - N/A   Clear
6:55 PM 50.2 °F - 40.6 °F 70% 30.29 in 10.0 mi ESE 8.1 mph - N/A   Clear
7:15 PM 49.8 °F - 39.0 °F 66% 30.29 in 10.0 mi East 8.1 mph - N/A   Clear
7:35 PM 48.2 °F - 40.3 °F 74% 30.29 in 10.0 mi ESE 5.8 mph - N/A   Clear
7:55 PM 47.5 °F - 42.1 °F 82% 30.29 in 10.0 mi ESE 6.9 mph - N/A   Clear
8:15 PM 46.4 °F 43.5 °F 42.6 °F 87% 30.30 in 10.0 mi ESE 5.8 mph - N/A   Clear
8:35 PM 45.5 °F 43.2 °F 42.8 °F 90% 30.30 in 10.0 mi ESE 4.6 mph - N/A   Clear
8:55 PM 45.0 °F 43.5 °F 42.8 °F 92% 30.31 in 10.0 mi ESE 3.5 mph - N/A   Clear
9:15 PM 44.1 °F 41.5 °F 42.3 °F 93% 30.32 in 10.0 mi SE 4.6 mph - N/A   Clear
9:35 PM 43.3 °F 40.7 °F 41.9 °F 95% 30.32 in 10.0 mi ESE 4.6 mph - N/A   Clear
10:15 PM 43.0 °F 38.2 °F 42.8 °F 99% 30.29 in 7.0 mi ESE 8.1 mph - N/A   Clear
10:35 PM 42.8 °F 38.0 °F 42.8 °F 100% 30.29 in 7.0 mi ESE 8.1 mph - N/A   Clear
10:55 PM 42.6 °F 39.0 °F 42.6 °F 100% 30.29 in 7.0 mi ESE 5.8 mph - N/A   Clear
11:15 PM 42.4 °F - 42.4 °F 100% 30.31 in 7.0 mi Calm Calm - N/A   Clear
11:35 PM 41.5 °F - 41.5 °F 100% 30.31 in 7.0 mi Calm Calm - N/A   Clear
11:55 PM 41.0 °F 39.0 °F 41.0 °F 100% 30.30 in 7.0 mi East 3.5 mph - N/A   Scattered Clouds
12:15 AM 40.6 °F - 40.6 °F 100% 30.30 in 7.0 mi Calm Calm - N/A   Scattered Clouds
12:35 AM 40.1 °F - 40.1 °F 100% 30.30 in 7.0 mi Calm Calm - N/A   Scattered Clouds
12:55 AM 42.1 °F - 42.1 °F 100% 30.30 in 7.0 mi Calm Calm - N/A   Overcast